Other Public Products
Issued by NWS Grand Forks, ND

Home | Current Version | Previous Version | Graphics & Text | Print | Product List | Glossary On
Versions: 1 2 3 4 5 6 7 8 9 10 11 12 13 14 15 16 17 18 19 20 21 22 23 24 25 26 27 28 29 30 31 32 33 34 35 36 37 38 39 40 41 42 43 44 45 46 47 48 49 50
000
FPUS83 KFGF 271831
OPUFGF
PRAIRIE TO PINES WEATHER ROUNDUP
NATIONAL WEATHER SERVICE EASTERN NORTH DAKOTA/GRAND FORKS ND
100 PM CDT WED MAY 27 2015

 **SATELLITE DATA USED TO AUGMENT SKY COVER AT AUTOMATED STATIONS**
 *****  WEATHER ACROSS EASTERN NORTH DAKOTA  *****

CITY           SKY/WX    TMP DP  RH WIND       PRES   REMARKS
GRAND FORKS    FAIR      69  49  48 N9        29.97R
6HR MIN TEMP:  56; 6HR MAX TEMP:  69;

GRAND FORKS AF FAIR      68  49  50 NE13G20   29.98S
GRAND CITY NWS   N/A     72 N/A N/A N9          N/A
BUXTON           N/A     75  53  45 N5          N/A
DEVILS LAKE    FAIR      70  48  46 E7        29.98S
6HR MIN TEMP:  54; 6HR MAX TEMP:  70;

FARGO          FAIR      77  55  46 VRB5      29.95S
6HR MIN TEMP:  56; 6HR MAX TEMP:  77;

WAHPETON ARPT  FAIR      77  50  38 CALM      29.97R
$$

 *****  WEATHER ACROSS CENTRAL AND WESTERN NORTH DAKOTA  *****

CITY           SKY/WX    TMP DP  RH WIND       PRES   REMARKS
JAMESTOWN      FAIR      78  50  37 VRB5      29.96S
6HR MIN TEMP:  56; 6HR MAX TEMP:  79;

BISMARCK       MOSUNNY   79  48  33 S10       29.97S
6HR MIN TEMP:  52; 6HR MAX TEMP:  81;

MINOT          FAIR      75  50  41 E7        29.96S
6HR MIN TEMP:  57; 6HR MAX TEMP:  75;

MINOT AFB      FAIR      75  52  45 E8        29.96S
6HR MIN TEMP:  56; 6HR MAX TEMP:  75; 6HR PCP: TRACE;

GARRISON       NOT AVBL
WILLISTON      CLOUDY    78  46  32 S6        29.91F
6HR MIN TEMP:  51; 6HR MAX TEMP:  78;

DICKINSON      PTSUNNY   76  49  38 S15G22    29.92F
6HR MIN TEMP:  49; 6HR MAX TEMP:  77;

HETTINGER      PTSUNNY   74  52  46 SE16G23   29.96F
6HR MIN TEMP:  49; 6HR MAX TEMP:  75;

$$

 *****  OTHER OBSERVATIONS NORTHEAST NORTH DAKOTA  *****

CITY           SKY/WX    TMP DP  RH WIND       PRES   REMARKS
WALHALLA         N/A     66  45  45 MISG      30.02R
LANGDON        FAIR      68  48  49 NE10      30.02R
CAVALIER       FAIR      66  46  48 N14G20    30.00S
GRAFTON        FAIR      68  46  45 N13       29.99F
CANDO          FAIR      70  46  43 E6        30.01S
FORT TOTTEN      N/A     71  50  46 E5        29.95S
ROLLA          FAIR      63  45  51 NE12      30.03S
RUGBY          NOT AVBL
 ***** THE ABOVE OBSERVATIONS ARE NON NWS ARE NOT QUALITY
        CONTROLLED AND MAY MIS-REPORT RAIN FOR SNOW...
$$

 *****  OTHER OBSERVATIONS SOUTHEAST NORTH DAKOTA *****

CITY           SKY/WX    TMP DP  RH WIND       PRES   REMARKS
COOPERSTOWN    NOT AVBL
VALLEY CITY      N/A     77  48  36 W8        29.97S
OAKES            N/A     77  57  50 SW5       29.98S
GWINNER        NOT AVBL
SHEYENNE NWR     N/A     81  56  42 CALM      29.95S
BUFFALO        NOT AVBL
WYNDMERE         N/A     81  50  34 N3          N/A
 ***** THE ABOVE OBSERVATIONS ARE NON NWS ARE NOT QUALITY
       CONTROLLED AND MAY MIS-REPORT RAIN FOR SNOW...
$$

  *****  WEATHER ACROSS NORTHERN MINNESOTA  *****

CITY           SKY/WX    TMP DP  RH WIND       PRES   REMARKS
FLAG ISLAND    FAIR      63  46  55 N9        29.95S
WARROAD        FAIR      70  50  49 NW9       29.96S
ROSEAU         FAIR      72  48  43 N7        29.95S
HALLOCK        FAIR      70  46  43 N12       29.97F
THF RVR FALLS  FAIR      72  50  46 NW7       29.96S
6HR MIN TEMP:  55; 6HR MAX TEMP:  72;

HALSTAD          N/A     75  46  36 N8          N/A
FOSSTON        FAIR      75  48  38 CALM      29.96S
BAUDETTE       FAIR      67  48  50 N14       29.95R
6HR MIN TEMP:  56; 6HR MAX TEMP:  68;

WASKISH        FAIR      70  57  64 SW8       29.94R
CROOKSTON      FAIR      72  48  43 NW9       29.97R
$$
  *****  WEATHER ACROSS CENTRAL AND WEST MINNESOTA  *****

CITY           SKY/WX    TMP DP  RH WIND       PRES   REMARKS
BEMIDJI        FAIR      76  50  39 W3        29.94S
PARK RAPIDS    FAIR      81  45  28 N7        29.94R
6HR MIN TEMP:  55; 6HR MAX TEMP:  82;

WADENA         FAIR      79  54  41 N7        29.95S
DETROIT LAKES  FAIR      75  50  41 CALM      29.97S
MOORHEAD       FAIR      75  54  46 NW7       29.96S
FERGUS FALLS   FAIR      77  54  44 NW9       29.96R
ELBOW LAKE     FAIR      76  56  50 N8        29.96S
6HR MIN TEMP:  55; 6HR MAX TEMP:  74;

MORRIS MN      FAIR      81  52  36 N12       29.96S
STAPLES        FAIR      79  48  34 W10       29.94S
WHEATON        FAIR      77  52  41 N5        29.98S
$$
  *****  WEATHER ELSEWHERE ACROSS MINNESOTA  *****

CITY           SKY/WX    TMP DP  RH WIND       PRES   REMARKS
DULUTH         FAIR      79  53  40 W9G20     29.88R
6HR MIN TEMP:  58; 6HR MAX TEMP:  79;

INTRNTL FALLS  FAIR      76  49  38 NW10      29.90R
6HR MIN TEMP:  51; 6HR MAX TEMP:  77;

ELY            NOT AVBL
CLOQUET        FAIR      79  50  36 W12       29.90R
BRAINERD       FAIR      78  53  41 VRB3      29.93R
6HR MIN TEMP:  52; 6HR MAX TEMP:  78;

HIBBING        FAIR      79  47  32 NW14      29.89R
6HR MIN TEMP:  48; 6HR MAX TEMP:  79;

ALEXANDRIA     FAIR      76  55  48 NW7       29.97S
6HR MIN TEMP:  55; 6HR MAX TEMP:  76;

SAINT CLOUD    FAIR      77  55  46 W3        29.93S
6HR MIN TEMP:  53; 6HR MAX TEMP:  78;

MINNEAPOLIS    FAIR      76  58  53 W10       29.95R
6HR MIN TEMP:  57; 6HR MAX TEMP:  76;

$$

  *****  WEATHER ACROSS SOUTH DAKOTA  *****

CITY           SKY/WX    TMP DP  RH WIND       PRES   REMARKS
SIOUX FALLS    FAIR      80  51  36 NW8       30.02S
6HR MIN TEMP:  56; 6HR MAX TEMP:  81;

BROOKINGS      FAIR      79  48  34 W8        30.02S
WATERTOWN      FAIR      79  48  33 NW9       30.01S
6HR MIN TEMP:  55; 6HR MAX TEMP:  79;

HURON          SUNNY     81  49  32 CALM      30.00F
6HR MIN TEMP:  53; 6HR MAX TEMP:  81;

SISSETON         N/A     81  48  31 N8        29.96S
ABERDEEN       MOSUNNY   83  48  29 CALM      29.98S
6HR MIN TEMP:  55; 6HR MAX TEMP:  83;

MITCHELL       SUNNY     80  52  37 VRB5      30.02F
PIERRE         MOSUNNY   79  49  34 S17G24    29.99S
6HR MIN TEMP:  52; 6HR MAX TEMP:  80;

MOBRIDGE       MOSUNNY   79  50  36 S10       29.96F
RAPID CITY     PTSUNNY   71  55  56 S15G22    29.98F
6HR MIN TEMP:  51; 6HR MAX TEMP:  72;

$$

  *****  SOME WEATHER IN NEARBY STATES *****

CITY           SKY/WX    TMP DP  RH WIND       PRES   REMARKS
GLASGOW MT     CLOUDY    66  53  63 E14       29.93F
6HR MIN TEMP:  57; 6HR MAX TEMP:  68; 6HR PCP:  0.02;

GREAT FALLS MT CLOUDY    55  49  80 W13       30.02F
6HR MIN TEMP:  50; 6HR MAX TEMP:  55; 6HR PCP:  0.01;

CHEYENNE WY    PTSUNNY   60  43  53 W18G28    30.11S
6HR MIN TEMP:  48; 6HR MAX TEMP:  66; 6HR PCP:  0.04;

SCOTTSBLUFF NE MOSUNNY   69  54  58 VRB5      30.03F
6HR MIN TEMP:  53; 6HR MAX TEMP:  70;

OMAHA NE       FAIR      80  53  39 S7        30.06S
6HR MIN TEMP:  55; 6HR MAX TEMP:  80;

DES MOINES IA  FAIR      79  54  41 W6        30.05S
6HR MIN TEMP:  59; 6HR MAX TEMP:  79;

DAVENPORT IA   FAIR      73  60  63 NW15      30.04S
6HR MIN TEMP:  62; 6HR MAX TEMP:  73;

CHICAGO IL     PTSUNNY   72  58  61 W16G28    29.98R
6HR MIN TEMP:  65; 6HR MAX TEMP:  72; 6HR PCP: TRACE;

EAU CLAIRE WI  FAIR      74  58  57 W13       29.95R
6HR MIN TEMP:  56; 6HR MAX TEMP:  74;

LA CROSSE WI   FAIR      76  58  53 VRB7      29.98R
6HR MIN TEMP:  61; 6HR MAX TEMP:  77;

$$

  *****  SOME NATIONAL WEATHER *****

CITY           SKY/WX    TMP DP  RH WIND       PRES   REMARKS
LA GUARDIA NY  FAIR      79  64  60 SE16      30.14F


USA.gov is the U.S. government's official web portal to all federal, state and local government web resources and services.